Location: Carimao
(10.4546°N, 66.7419°W)
Time: 07:15:53
(UTC+00:00)

Cosmos 1862 - Pass Details

Date: 19 May 2024
Orbit: 508 x 525 km, 82.5° (Epoch: 22 June)

Event Time Altitude Azimuth Distance (km) Brightness Sun altitude
Rises 23:35:53 0° 353° (N) 2,603 7.2 -13.0°
Reaches altitude 10° 23:38:00 10° 351° (N) 1,718 6.3 -13.5°
Maximum altitude 23:41:45 74° 266° (W) 529 3.3 -14.3°
Drops below altitude 10° 23:45:30 10° 181° (S) 1,719 5.6 -15.1°
Enters shadow 23:46:38 - 180° (S) 2,191 6.1 -15.4°
